Time,TemperatureF,DewpointF,PressureIn,WindDirection,WindDirectionDegrees,WindSpeedMPH,WindSpeedGustMPH,Humidity,HourlyPrecipIn,Conditions,Clouds,dailyrainin,SoftwareType,DateUTC
2013-10-10 00:01:00,48.7,43.1,30.13,SSE,167,0.0,0.0,81,0.00,,---,0.00,VWS V14.01,2013-10-10 05:01:00,
2013-10-10 00:06:00,48.7,43.1,30.13,SSE,167,0.0,0.0,81,0.00,,---,0.00,VWS V14.01,2013-10-10 05:06:00,
2013-10-10 00:11:00,48.5,42.9,30.13,SSE,167,0.0,0.0,81,0.00,,---,0.00,VWS V14.01,2013-10-10 05:11:00,
2013-10-10 00:16:00,48.4,42.8,30.13,SSE,167,0.0,0.0,81,0.00,,---,0.00,VWS V14.01,2013-10-10 05:16:00,
2013-10-10 00:21:00,48.3,42.7,30.13,SSE,167,0.0,0.0,81,0.00,,---,0.00,VWS V14.01,2013-10-10 05:21:00,
2013-10-10 00:26:00,48.2,42.6,30.13,SSE,167,0.0,0.0,81,0.00,,---,0.00,VWS V14.01,2013-10-10 05:26:00,
2013-10-10 00:31:00,48.0,42.7,30.13,SSE,167,0.0,0.0,82,0.00,,---,0.00,VWS V14.01,2013-10-10 05:31:00,
2013-10-10 00:36:00,47.8,42.2,30.12,SSE,167,0.0,0.0,81,0.00,,---,0.00,VWS V14.01,2013-10-10 05:36:00,
2013-10-10 00:41:00,47.6,42.3,30.13,SSE,167,0.0,0.0,82,0.00,,---,0.00,VWS V14.01,2013-10-10 05:41:00,
2013-10-10 00:46:00,47.4,42.1,30.13,SSE,167,0.0,0.0,82,0.00,,---,0.00,VWS V14.01,2013-10-10 05:46:00,
2013-10-10 00:51:00,47.2,41.9,30.12,SSE,167,0.0,0.0,82,0.00,,---,0.00,VWS V14.01,2013-10-10 05:51:00,
2013-10-10 00:56:00,47.0,42.0,30.12,SSE,167,0.0,0.0,83,0.00,,---,0.00,VWS V14.01,2013-10-10 05:56:00,
2013-10-10 01:01:00,46.9,41.9,30.12,SSE,167,0.0,0.0,83,0.00,,---,0.00,VWS V14.01,2013-10-10 06:01:00,
2013-10-10 01:06:00,46.8,41.8,30.12,SSE,167,0.0,0.0,83,0.00,,---,0.00,VWS V14.01,2013-10-10 06:06:00,
2013-10-10 01:11:00,46.7,41.8,30.12,SSE,167,0.0,0.0,83,0.00,,---,0.00,VWS V14.01,2013-10-10 06:11:00,
2013-10-10 01:16:00,46.6,41.7,30.12,SSE,168,0.0,0.0,83,0.00,,---,0.00,VWS V14.01,2013-10-10 06:16:00,
2013-10-10 01:21:00,46.5,41.8,30.12,SSE,167,0.0,0.0,84,0.00,,---,0.00,VWS V14.01,2013-10-10 06:21:00,
2013-10-10 01:26:00,46.3,41.7,30.12,SSE,167,0.0,0.0,84,0.00,,---,0.00,VWS V14.01,2013-10-10 06:26:00,
2013-10-10 01:31:00,46.2,41.5,30.12,SSE,167,0.0,0.0,84,0.00,,---,0.00,VWS V14.01,2013-10-10 06:31:00,
2013-10-10 01:36:00,46.0,41.3,30.12,SSE,167,0.0,0.0,84,0.00,,---,0.00,VWS V14.01,2013-10-10 06:36:00,
2013-10-10 01:41:00,46.0,41.3,30.12,SSE,167,0.0,0.0,84,0.00,,---,0.00,VWS V14.01,2013-10-10 06:41:00,
2013-10-10 01:46:00,45.9,41.2,30.12,SSE,167,0.0,0.0,84,0.00,,---,0.00,VWS V14.01,2013-10-10 06:46:00,
2013-10-10 01:51:00,45.7,41.3,30.12,SSE,167,0.0,0.0,85,0.00,,---,0.00,VWS V14.01,2013-10-10 06:51:00,
2013-10-10 01:56:00,45.6,41.2,30.12,SSE,167,0.0,0.0,85,0.00,,---,0.00,VWS V14.01,2013-10-10 06:56:00,
2013-10-10 02:01:00,45.5,41.2,30.12,SSE,167,0.0,0.0,85,0.00,,---,0.00,VWS V14.01,2013-10-10 07:01:00,
2013-10-10 02:06:00,45.4,41.0,30.12,SSE,167,0.0,0.0,85,0.00,,---,0.00,VWS V14.01,2013-10-10 07:06:00,
2013-10-10 02:11:00,45.4,41.3,30.12,SSE,167,0.0,0.0,86,0.00,,---,0.00,VWS V14.01,2013-10-10 07:11:00,
2013-10-10 02:16:00,45.3,41.2,30.12,SSE,167,0.0,0.0,86,0.00,,---,0.00,VWS V14.01,2013-10-10 07:16:00,
2013-10-10 02:21:00,45.2,41.1,30.12,SSE,167,0.0,0.0,86,0.00,,---,0.00,VWS V14.01,2013-10-10 07:21:00,
2013-10-10 02:26:00,45.1,41.0,30.12,SSE,167,0.0,0.0,86,0.00,,---,0.00,VWS V14.01,2013-10-10 07:26:00,
2013-10-10 02:31:00,45.1,41.3,30.12,SSE,167,0.0,0.0,86,0.00,,---,0.00,VWS V14.01,2013-10-10 07:31:00,
2013-10-10 02:36:00,45.0,41.2,30.12,SSE,167,0.0,0.0,86,0.00,,---,0.00,VWS V14.01,2013-10-10 07:36:00,
2013-10-10 02:41:00,45.0,41.2,30.12,SSE,167,0.0,0.0,86,0.00,,---,0.00,VWS V14.01,2013-10-10 07:41:00,
2013-10-10 02:46:00,44.9,41.1,30.12,SSE,167,0.0,0.0,86,0.00,,---,0.00,VWS V14.01,2013-10-10 07:46:00,
2013-10-10 02:51:00,44.7,40.9,30.12,SSE,167,0.0,0.0,86,0.00,,---,0.00,VWS V14.01,2013-10-10 07:51:00,
2013-10-10 02:56:00,44.6,40.8,30.12,SSE,167,0.0,0.0,86,0.00,,---,0.00,VWS V14.01,2013-10-10 07:56:00,
2013-10-10 03:01:00,44.5,40.7,30.12,SSE,167,0.0,0.0,86,0.00,,---,0.00,VWS V14.01,2013-10-10 08:01:00,
2013-10-10 03:06:00,44.3,40.5,30.12,SSE,168,0.0,0.0,86,0.00,,---,0.00,VWS V14.01,2013-10-10 08:06:00,
2013-10-10 03:11:00,44.2,40.4,30.12,SSE,167,0.0,0.0,86,0.00,,---,0.00,VWS V14.01,2013-10-10 08:11:00,
2013-10-10 03:16:00,44.0,40.2,30.12,SSE,167,0.0,0.0,86,0.00,,---,0.00,VWS V14.01,2013-10-10 08:16:00,
2013-10-10 03:21:00,44.0,40.5,30.12,SSE,167,0.0,0.0,87,0.00,,---,0.00,VWS V14.01,2013-10-10 08:21:00,
2013-10-10 03:26:00,44.0,40.5,30.12,SSE,167,0.0,0.0,87,0.00,,---,0.00,VWS V14.01,2013-10-10 08:26:00,
2013-10-10 03:31:00,43.9,40.4,30.12,SSE,167,0.0,0.0,87,0.00,,---,0.00,VWS V14.01,2013-10-10 08:31:00,
2013-10-10 03:36:00,43.8,40.3,30.12,SSE,167,0.0,0.0,87,0.00,,---,0.00,VWS V14.01,2013-10-10 08:36:00,
2013-10-10 03:41:00,43.6,40.1,30.12,SSE,167,0.0,0.0,87,0.00,,---,0.00,VWS V14.01,2013-10-10 08:41:00,
2013-10-10 03:46:00,43.5,40.0,30.12,SSE,167,0.0,0.0,87,0.00,,---,0.00,VWS V14.01,2013-10-10 08:46:00,
2013-10-10 03:51:00,43.4,39.9,30.12,SSE,167,0.0,0.0,87,0.00,,---,0.00,VWS V14.01,2013-10-10 08:51:00,
2013-10-10 03:56:00,43.4,39.9,30.12,SSE,167,0.0,0.0,87,0.00,,---,0.00,VWS V14.01,2013-10-10 08:56:00,
2013-10-10 04:01:00,43.3,39.8,30.12,SSE,167,0.0,0.0,87,0.00,,---,0.00,VWS V14.01,2013-10-10 09:01:00,
2013-10-10 04:06:00,43.2,39.7,30.12,SSE,167,0.0,0.0,87,0.00,,---,0.00,VWS V14.01,2013-10-10 09:06:00,
2013-10-10 04:11:00,43.1,39.9,30.12,SSE,168,0.0,0.0,88,0.00,,---,0.00,VWS V14.01,2013-10-10 09:11:00,
2013-10-10 04:16:00,43.1,39.9,30.13,SSE,167,0.0,0.0,88,0.00,,---,0.00,VWS V14.01,2013-10-10 09:16:00,
2013-10-10 04:21:00,43.1,39.9,30.13,SSE,167,0.0,0.0,88,0.00,,---,0.00,VWS V14.01,2013-10-10 09:21:00,
2013-10-10 04:26:00,43.1,39.9,30.13,SSE,167,0.0,0.0,88,0.00,,---,0.00,VWS V14.01,2013-10-10 09:26:00,
2013-10-10 04:31:00,43.1,39.9,30.13,SSE,167,0.0,0.0,88,0.00,,---,0.00,VWS V14.01,2013-10-10 09:31:00,
2013-10-10 04:36:00,43.1,39.9,30.13,SSE,167,0.0,0.0,88,0.00,,---,0.00,VWS V14.01,2013-10-10 09:36:00,
2013-10-10 04:41:00,43.1,39.9,30.13,SSE,167,0.0,0.0,88,0.00,,---,0.00,VWS V14.01,2013-10-10 09:41:00,
2013-10-10 04:46:00,43.1,39.9,30.13,SSE,167,0.0,0.0,88,0.00,,---,0.00,VWS V14.01,2013-10-10 09:46:00,
2013-10-10 04:51:00,43.0,39.8,30.13,SSE,167,0.0,0.0,88,0.00,,---,0.00,VWS V14.01,2013-10-10 09:51:00,
2013-10-10 04:56:00,42.9,39.7,30.13,SSE,167,0.0,0.0,88,0.00,,---,0.00,VWS V14.01,2013-10-10 09:56:00,
2013-10-10 05:01:00,42.9,39.7,30.13,SSE,167,0.0,0.0,88,0.00,,---,0.00,VWS V14.01,2013-10-10 10:01:00,
2013-10-10 05:06:00,42.7,39.5,30.13,SSE,168,0.0,0.0,88,0.00,,---,0.00,VWS V14.01,2013-10-10 10:06:00,
2013-10-10 05:11:00,42.7,39.5,30.13,SSE,167,0.0,0.0,88,0.00,,---,0.00,VWS V14.01,2013-10-10 10:11:00,
2013-10-10 05:16:00,42.7,39.5,30.13,SSE,167,0.0,0.0,88,0.00,,---,0.00,VWS V14.01,2013-10-10 10:16:00,
2013-10-10 05:21:00,42.5,39.3,30.13,SSE,167,0.0,0.0,88,0.00,,---,0.00,VWS V14.01,2013-10-10 10:21:00,
2013-10-10 05:26:00,42.4,39.2,30.13,SSE,167,0.0,0.0,88,0.00,,---,0.00,VWS V14.01,2013-10-10 10:26:00,
2013-10-10 05:31:00,42.3,39.1,30.13,SSE,167,0.0,0.0,88,0.00,,---,0.00,VWS V14.01,2013-10-10 10:31:00,
2013-10-10 05:36:00,42.3,39.4,30.13,SSE,167,0.0,0.0,89,0.00,,---,0.00,VWS V14.01,2013-10-10 10:36:00,
2013-10-10 05:41:00,42.3,39.4,30.13,SSE,167,0.0,0.0,89,0.00,,---,0.00,VWS V14.01,2013-10-10 10:41:00,
2013-10-10 05:46:00,42.3,39.4,30.13,SSE,167,0.0,0.0,89,0.00,,---,0.00,VWS V14.01,2013-10-10 10:46:00,
2013-10-10 05:51:00,42.3,39.4,30.13,SSE,167,0.0,0.0,89,0.00,,---,0.00,VWS V14.01,2013-10-10 10:51:00,
2013-10-10 05:56:00,42.4,39.5,30.13,SSE,167,0.0,0.0,89,0.00,,---,0.00,VWS V14.01,2013-10-10 10:56:00,
2013-10-10 06:01:00,42.4,39.5,30.13,SSE,167,0.0,0.0,89,0.00,,---,0.00,VWS V14.01,2013-10-10 11:01:00,
2013-10-10 06:06:00,42.4,39.5,30.13,SSE,167,0.0,0.0,89,0.00,,---,0.00,VWS V14.01,2013-10-10 11:06:00,
2013-10-10 06:10:00,42.4,39.5,30.13,SSE,167,0.0,0.0,89,0.00,,---,0.00,VWS V14.01,2013-10-10 11:10:00,
2013-10-10 06:15:00,42.4,39.5,30.13,SSE,167,0.0,0.0,89,0.00,,---,0.00,VWS V14.01,2013-10-10 11:15:00,
2013-10-10 06:20:00,42.5,39.6,30.13,SSE,167,0.0,0.0,89,0.00,,---,0.00,VWS V14.01,2013-10-10 11:20:00,
2013-10-10 06:25:00,42.4,39.5,30.13,SSE,167,0.0,0.0,89,0.00,,---,0.00,VWS V14.01,2013-10-10 11:25:00,
2013-10-10 06:30:00,42.5,39.6,30.13,SSE,167,0.0,0.0,89,0.00,,---,0.00,VWS V14.01,2013-10-10 11:30:00,
2013-10-10 06:35:00,42.5,39.6,30.13,SSE,167,0.0,0.0,89,0.00,,---,0.00,VWS V14.01,2013-10-10 11:35:00,
2013-10-10 06:40:00,42.5,39.6,30.13,SSE,168,0.0,0.0,89,0.00,,---,0.00,VWS V14.01,2013-10-10 11:40:00,
2013-10-10 06:45:00,42.5,39.6,30.13,SSE,167,0.0,0.0,89,0.00,,---,0.00,VWS V14.01,2013-10-10 11:45:00,
2013-10-10 06:50:00,42.4,39.5,30.13,SSE,168,0.0,0.0,89,0.00,,---,0.00,VWS V14.01,2013-10-10 11:50:00,
2013-10-10 06:55:00,42.3,39.4,30.13,SSE,167,0.0,0.0,89,0.00,,---,0.00,VWS V14.01,2013-10-10 11:55:00,
2013-10-10 07:00:00,42.3,39.4,30.13,SSE,168,0.0,0.0,89,0.00,,---,0.00,VWS V14.01,2013-10-10 12:00:00,
2013-10-10 07:05:00,42.2,39.3,30.13,SSE,167,0.0,0.0,89,0.00,,---,0.00,VWS V14.01,2013-10-10 12:05:00,
2013-10-10 07:10:00,42.2,39.3,30.14,SSE,167,0.0,0.0,89,0.00,,---,0.00,VWS V14.01,2013-10-10 12:10:00,
2013-10-10 07:15:00,42.2,39.3,30.14,SSE,167,0.0,0.0,89,0.00,,---,0.00,VWS V14.01,2013-10-10 12:15:00,
2013-10-10 07:20:00,42.2,39.3,30.14,SSE,167,0.0,0.0,89,0.00,,---,0.00,VWS V14.01,2013-10-10 12:20:00,
2013-10-10 07:25:00,42.1,39.2,30.14,SSE,167,0.0,0.0,89,0.00,,---,0.00,VWS V14.01,2013-10-10 12:25:00,
2013-10-10 07:30:00,42.1,39.2,30.14,SSE,167,0.0,0.0,89,0.00,,---,0.00,VWS V14.01,2013-10-10 12:30:00,
2013-10-10 07:35:00,42.1,39.2,30.15,SSE,167,0.0,0.0,89,0.00,,---,0.00,VWS V14.01,2013-10-10 12:35:00,
2013-10-10 07:40:00,42.3,39.6,30.15,SSE,167,0.0,0.0,90,0.00,,---,0.00,VWS V14.01,2013-10-10 12:40:00,
2013-10-10 07:45:00,42.5,39.8,30.15,SSE,168,0.0,0.0,90,0.00,,---,0.00,VWS V14.01,2013-10-10 12:45:00,
2013-10-10 07:50:00,42.7,40.0,30.15,SSE,167,0.0,0.0,90,0.00,,---,0.00,VWS V14.01,2013-10-10 12:50:00,
2013-10-10 07:55:00,43.0,40.3,30.15,SSE,167,0.0,0.0,90,0.00,,---,0.00,VWS V14.01,2013-10-10 12:55:00,
2013-10-10 08:00:00,43.3,40.6,30.15,SSE,167,0.0,0.0,90,0.00,,---,0.00,VWS V14.01,2013-10-10 13:00:00,
2013-10-10 08:05:00,43.7,41.0,30.15,SSE,168,0.0,0.0,90,0.00,,---,0.00,VWS V14.01,2013-10-10 13:05:00,
2013-10-10 08:10:00,44.2,41.5,30.16,SSE,167,0.0,0.0,90,0.00,,---,0.00,VWS V14.01,2013-10-10 13:10:00,
2013-10-10 08:15:00,44.7,42.0,30.16,SSE,167,0.0,0.0,90,0.00,,---,0.00,VWS V14.01,2013-10-10 13:15:00,
2013-10-10 08:20:00,45.2,42.5,30.16,East,98,0.0,0.0,90,0.00,,---,0.00,VWS V14.01,2013-10-10 13:20:00,
2013-10-10 08:25:00,45.9,43.2,30.16,East,98,0.0,0.0,90,0.00,,---,0.00,VWS V14.01,2013-10-10 13:25:00,
2013-10-10 08:30:00,46.4,43.7,30.16,East,98,0.0,0.0,90,0.00,,---,0.00,VWS V14.01,2013-10-10 13:30:00,
2013-10-10 08:35:00,47.2,44.8,30.16,East,101,0.0,0.0,91,0.00,,---,0.00,VWS V14.01,2013-10-10 13:35:00,
2013-10-10 08:40:00,48.0,45.5,30.16,East,101,0.0,0.0,91,0.00,,---,0.00,VWS V14.01,2013-10-10 13:40:00,
2013-10-10 08:45:00,48.6,46.1,30.16,ENE,67,0.0,1.8,91,0.00,,---,0.00,VWS V14.01,2013-10-10 13:45:00,
2013-10-10 08:50:00,48.8,46.3,30.16,ESE,108,0.0,1.8,91,0.00,,---,0.00,VWS V14.01,2013-10-10 13:50:00,
2013-10-10 08:55:00,49.3,46.6,30.16,ESE,107,0.0,0.0,90,0.00,,---,0.00,VWS V14.01,2013-10-10 13:55:00,
2013-10-10 09:00:00,49.9,47.2,30.16,ESE,108,1.8,1.8,90,0.00,,---,0.00,VWS V14.01,2013-10-10 14:00:00,
2013-10-10 09:05:00,50.3,47.3,30.16,ESE,108,0.0,1.8,89,0.00,,---,0.00,VWS V14.01,2013-10-10 14:05:00,
2013-10-10 09:10:00,50.9,47.6,30.16,ESE,118,0.0,1.8,88,0.00,,---,0.00,VWS V14.01,2013-10-10 14:10:00,
2013-10-10 09:15:00,51.5,47.9,30.16,ESE,120,0.0,0.0,87,0.00,,---,0.00,VWS V14.01,2013-10-10 14:15:00,
2013-10-10 09:20:00,52.0,47.8,30.16,ESE,111,0.0,0.0,86,0.00,,---,0.00,VWS V14.01,2013-10-10 14:20:00,
2013-10-10 09:25:00,52.4,47.9,30.16,NNE,24,0.0,0.0,85,0.00,,---,0.00,VWS V14.01,2013-10-10 14:25:00,
2013-10-10 09:30:00,52.9,48.4,30.16,ESE,117,0.0,0.0,85,0.00,,---,0.00,VWS V14.01,2013-10-10 14:30:00,
2013-10-10 09:35:00,53.3,48.5,30.16,ESE,114,0.0,0.0,84,0.00,,---,0.00,VWS V14.01,2013-10-10 14:35:00,
2013-10-10 09:40:00,54.1,49.3,30.16,East,88,0.0,1.8,84,0.00,,---,0.00,VWS V14.01,2013-10-10 14:40:00,
2013-10-10 09:45:00,54.8,49.4,30.16,ESE,110,0.0,0.0,82,0.00,,---,0.00,VWS V14.01,2013-10-10 14:45:00,
2013-10-10 09:50:00,55.6,49.8,30.16,NNW,333,0.0,1.8,81,0.00,,---,0.00,VWS V14.01,2013-10-10 14:50:00,
2013-10-10 09:55:00,56.6,50.8,30.16,ESE,105,0.0,3.6,81,0.00,,---,0.00,VWS V14.01,2013-10-10 14:55:00,
2013-10-10 10:00:00,57.3,50.9,30.16,ESE,112,0.0,3.6,79,0.00,,---,0.00,VWS V14.01,2013-10-10 15:00:00,
2013-10-10 10:05:00,58.0,51.2,30.16,North,360,0.0,1.8,78,0.00,,---,0.00,VWS V14.01,2013-10-10 15:05:00,
2013-10-10 10:10:00,58.5,51.1,30.16,North,356,0.0,0.0,76,0.00,,---,0.00,VWS V14.01,2013-10-10 15:10:00,
2013-10-10 10:15:00,59.1,51.6,30.16,NNE,32,0.0,0.0,76,0.00,,---,0.00,VWS V14.01,2013-10-10 15:15:00,
2013-10-10 10:20:00,59.8,52.0,30.16,ESE,120,0.0,0.0,75,0.00,,---,0.00,VWS V14.01,2013-10-10 15:20:00,
2013-10-10 10:25:00,60.8,52.3,30.15,SE,141,0.0,3.6,73,0.00,,---,0.00,VWS V14.01,2013-10-10 15:25:00,
2013-10-10 10:30:00,61.6,52.3,30.15,SW,222,0.0,3.6,72,0.00,,---,0.00,VWS V14.01,2013-10-10 15:30:00,
2013-10-10 10:35:00,62.2,52.6,30.15,SE,139,0.0,1.8,71,0.00,,---,0.00,VWS V14.01,2013-10-10 15:35:00,
2013-10-10 10:40:00,62.8,52.8,30.15,South,176,0.0,1.8,70,0.00,,---,0.00,VWS V14.01,2013-10-10 15:40:00,
2013-10-10 10:45:00,63.3,52.9,30.15,ESE,117,1.8,3.6,69,0.00,,---,0.00,VWS V14.01,2013-10-10 15:45:00,
2013-10-10 10:50:00,64.0,53.6,30.15,South,191,1.8,7.2,69,0.00,,---,0.00,VWS V14.01,2013-10-10 15:50:00,
2013-10-10 10:55:00,65.0,54.2,30.15,East,99,0.0,3.6,68,0.00,,---,0.00,VWS V14.01,2013-10-10 15:55:00,
2013-10-10 11:00:00,65.7,54.1,30.14,SSW,210,0.0,5.4,66,0.00,,---,0.00,VWS V14.01,2013-10-10 16:00:00,
2013-10-10 11:05:00,66.5,54.0,30.14,SW,217,0.0,5.4,64,0.00,,---,0.00,VWS V14.01,2013-10-10 16:05:00,
2013-10-10 11:10:00,67.1,54.6,30.14,East,99,0.0,0.0,64,0.00,,---,0.00,VWS V14.01,2013-10-10 16:10:00,
2013-10-10 11:15:00,67.8,54.9,30.14,South,181,0.0,5.4,63,0.00,,---,0.00,VWS V14.01,2013-10-10 16:15:00,
2013-10-10 11:20:00,68.6,54.8,30.14,SSW,193,1.8,3.6,61,0.00,,---,0.00,VWS V14.01,2013-10-10 16:20:00,
2013-10-10 11:25:00,68.9,54.7,30.14,South,190,0.0,5.4,60,0.00,,---,0.00,VWS V14.01,2013-10-10 16:25:00,
2013-10-10 11:30:00,69.1,55.7,30.14,SSW,198,0.0,3.6,62,0.00,,---,0.00,VWS V14.01,2013-10-10 16:30:00,
2013-10-10 11:35:00,69.9,55.6,30.14,ESE,122,0.0,3.6,60,0.00,,---,0.00,VWS V14.01,2013-10-10 16:35:00,
2013-10-10 11:40:00,70.5,55.3,30.14,South,173,1.8,5.4,59,0.00,,---,0.00,VWS V14.01,2013-10-10 16:40:00,
2013-10-10 11:45:00,70.9,56.1,30.13,SSW,198,3.6,5.4,60,0.00,,---,0.00,VWS V14.01,2013-10-10 16:45:00,
2013-10-10 11:50:00,71.6,55.9,30.13,ESE,109,1.8,3.6,58,0.00,,---,0.00,VWS V14.01,2013-10-10 16:50:00,
2013-10-10 11:55:00,71.9,55.3,30.13,NW,305,0.0,7.2,56,0.00,,---,0.00,VWS V14.01,2013-10-10 16:55:00,
2013-10-10 12:00:00,72.6,56.8,30.13,NNE,13,3.6,7.2,58,0.00,,---,0.00,VWS V14.01,2013-10-10 17:00:00,
2013-10-10 12:05:00,73.0,55.8,30.12,SE,124,0.0,3.6,55,0.00,,---,0.00,VWS V14.01,2013-10-10 17:05:00,
2013-10-10 12:10:00,73.0,55.4,30.12,SW,230,3.6,5.4,54,0.00,,---,0.00,VWS V14.01,2013-10-10 17:10:00,
2013-10-10 12:15:00,73.1,55.5,30.12,WSW,249,1.8,9.0,54,0.00,,---,0.00,VWS V14.01,2013-10-10 17:15:00,
2013-10-10 12:20:00,73.1,54.5,30.12,ESE,115,5.4,14.4,52,0.00,,---,0.00,VWS V14.01,2013-10-10 17:20:00,
2013-10-10 12:25:00,72.8,55.2,30.11,WSW,238,1.8,7.2,54,0.00,,---,0.00,VWS V14.01,2013-10-10 17:25:00,
2013-10-10 12:30:00,73.0,54.9,30.11,WSW,249,3.6,7.2,53,0.00,,---,0.00,VWS V14.01,2013-10-10 17:30:00,
2013-10-10 12:35:00,72.8,54.7,30.11,ESE,107,3.6,10.8,53,0.00,,---,0.00,VWS V14.01,2013-10-10 17:35:00,
2013-10-10 12:40:00,72.8,55.7,30.10,SW,215,9.0,10.8,55,0.00,,---,0.00,VWS V14.01,2013-10-10 17:40:00,
2013-10-10 12:45:00,72.9,55.3,30.10,ESE,115,3.6,9.0,54,0.00,,---,0.00,VWS V14.01,2013-10-10 17:45:00,
2013-10-10 12:50:00,73.3,55.2,30.10,SW,236,1.8,10.8,53,0.00,,---,0.00,VWS V14.01,2013-10-10 17:50:00,
2013-10-10 12:55:00,73.6,55.0,30.09,SW,221,1.8,10.8,52,0.00,,---,0.00,VWS V14.01,2013-10-10 17:55:00,
2013-10-10 13:00:00,73.9,55.2,30.09,SSW,193,1.8,10.8,52,0.00,,---,0.00,VWS V14.01,2013-10-10 18:00:00,
2013-10-10 13:05:00,74.6,55.4,30.09,SSW,198,3.6,9.0,51,0.00,,---,0.00,VWS V14.01,2013-10-10 18:05:00,
2013-10-10 13:10:00,74.7,55.0,30.09,ESE,120,7.2,18.0,50,0.00,,---,0.00,VWS V14.01,2013-10-10 18:10:00,
2013-10-10 13:15:00,74.7,55.0,30.09,ESE,111,7.2,12.6,50,0.00,,---,0.00,VWS V14.01,2013-10-10 18:15:00,
2013-10-10 13:20:00,74.3,54.6,30.09,SSW,205,5.4,9.0,50,0.00,,---,0.00,VWS V14.01,2013-10-10 18:20:00,
2013-10-10 13:25:00,74.4,54.2,30.08,SSW,212,3.6,9.0,49,0.00,,---,0.00,VWS V14.01,2013-10-10 18:25:00,
2013-10-10 13:30:00,74.6,53.8,30.08,SW,222,3.6,7.2,48,0.00,,---,0.00,VWS V14.01,2013-10-10 18:30:00,
2013-10-10 13:35:00,74.9,54.1,30.08,WSW,238,5.4,7.2,48,0.00,,---,0.00,VWS V14.01,2013-10-10 18:35:00,
2013-10-10 13:40:00,74.8,54.5,30.08,ESE,119,9.0,12.6,49,0.00,,---,0.00,VWS V14.01,2013-10-10 18:40:00,
2013-10-10 13:45:00,74.8,54.5,30.08,ESE,117,5.4,9.0,49,0.00,,---,0.00,VWS V14.01,2013-10-10 18:45:00,
2013-10-10 13:50:00,75.0,54.2,30.08,SW,221,5.4,9.0,48,0.00,,---,0.00,VWS V14.01,2013-10-10 18:50:00,
2013-10-10 13:55:00,75.5,55.7,30.08,SE,138,0.0,10.8,50,0.00,,---,0.00,VWS V14.01,2013-10-10 18:55:00,
2013-10-10 14:00:00,75.9,55.0,30.07,SSW,207,3.6,7.2,48,0.00,,---,0.00,VWS V14.01,2013-10-10 19:00:00,
2013-10-10 14:05:00,76.0,54.0,30.07,ENE,64,1.8,14.4,46,0.00,,---,0.00,VWS V14.01,2013-10-10 19:05:00,
2013-10-10 14:10:00,75.7,53.8,30.07,South,186,1.8,7.2,46,0.00,,---,0.00,VWS V14.01,2013-10-10 19:10:00,
2013-10-10 14:15:00,75.2,53.9,30.07,SSW,212,3.6,10.8,47,0.00,,---,0.00,VWS V14.01,2013-10-10 19:15:00,
2013-10-10 14:20:00,74.9,54.1,30.07,SSW,208,3.6,10.8,48,0.00,,---,0.00,VWS V14.01,2013-10-10 19:20:00,
2013-10-10 14:25:00,74.7,53.9,30.07,ESE,105,3.6,10.8,48,0.00,,---,0.00,VWS V14.01,2013-10-10 19:25:00,
2013-10-10 14:30:00,74.8,54.0,30.06,SSW,208,0.0,7.2,48,0.00,,---,0.00,VWS V14.01,2013-10-10 19:30:00,
2013-10-10 14:35:00,74.9,53.0,30.06,SSW,205,3.6,12.6,46,0.00,,---,0.00,VWS V14.01,2013-10-10 19:35:00,
2013-10-10 14:40:00,74.9,53.6,30.06,SSW,201,0.0,10.8,47,0.00,,---,0.00,VWS V14.01,2013-10-10 19:40:00,
2013-10-10 14:45:00,75.2,53.9,30.05,ESE,114,0.0,5.4,47,0.00,,---,0.00,VWS V14.01,2013-10-10 19:45:00,
2013-10-10 14:50:00,75.4,54.0,30.06,SSW,200,1.8,10.8,47,0.00,,---,0.00,VWS V14.01,2013-10-10 19:50:00,
2013-10-10 14:55:00,75.5,53.6,30.06,SSW,208,5.4,16.2,46,0.00,,---,0.00,VWS V14.01,2013-10-10 19:55:00,
2013-10-10 15:00:00,75.4,54.0,30.05,SW,215,10.8,10.8,47,0.00,,---,0.00,VWS V14.01,2013-10-10 20:00:00,
2013-10-10 15:05:00,75.2,53.9,30.05,SW,233,10.8,10.8,47,0.00,,---,0.00,VWS V14.01,2013-10-10 20:05:00,
2013-10-10 15:10:00,75.2,52.8,30.05,SW,215,9.0,12.6,46,0.00,,---,0.00,VWS V14.01,2013-10-10 20:10:00,
2013-10-10 15:15:00,75.1,53.2,30.05,SW,226,3.6,9.0,46,0.00,,---,0.00,VWS V14.01,2013-10-10 20:15:00,
2013-10-10 15:20:00,75.2,52.2,30.05,SSW,207,5.4,12.6,45,0.00,,---,0.00,VWS V14.01,2013-10-10 20:20:00,
2013-10-10 15:25:00,75.1,52.1,30.05,SSW,210,3.6,10.8,45,0.00,,---,0.00,VWS V14.01,2013-10-10 20:25:00,
2013-10-10 15:30:00,74.9,53.0,30.04,ESE,108,0.0,7.2,46,0.00,,---,0.00,VWS V14.01,2013-10-10 20:30:00,
2013-10-10 15:31:00,74.9,53.6,30.04,ESE,117,1.8,1.8,47,0.00,,---,0.00,VWS V14.01,2013-10-10 20:31:00,
2013-10-10 15:36:00,74.9,54.1,30.04,SSE,157,0.0,0.0,48,0.00,,---,0.00,VWS V14.01,2013-10-10 20:36:00,
2013-10-10 15:41:00,75.1,54.8,30.03,ESE,117,0.0,0.0,49,0.00,,---,0.00,VWS V14.01,2013-10-10 20:41:00,
2013-10-10 15:46:00,75.4,54.0,30.03,SW,219,1.8,3.6,47,0.00,,---,0.00,VWS V14.01,2013-10-10 20:46:00,
2013-10-10 15:51:00,75.4,53.5,30.03,East,91,7.2,10.8,46,0.00,,---,0.00,VWS V14.01,2013-10-10 20:51:00,
2013-10-10 15:56:00,75.2,53.3,30.03,SW,219,3.6,5.4,46,0.00,,---,0.00,VWS V14.01,2013-10-10 20:56:00,
2013-10-10 16:01:00,75.4,53.0,30.03,SSE,149,0.0,0.0,46,0.00,,---,0.00,VWS V14.01,2013-10-10 21:01:00,
2013-10-10 16:06:00,75.3,53.4,30.03,SSW,195,5.4,9.0,46,0.00,,---,0.00,VWS V14.01,2013-10-10 21:06:00,
2013-10-10 16:11:00,75.3,52.9,30.03,SSW,201,1.8,3.6,46,0.00,,---,0.00,VWS V14.01,2013-10-10 21:11:00,
2013-10-10 16:16:00,75.4,53.5,30.03,SW,225,3.6,5.4,46,0.00,,---,0.00,VWS V14.01,2013-10-10 21:16:00,
2013-10-10 16:21:00,75.2,53.3,30.03,ESE,109,3.6,3.6,46,0.00,,---,0.00,VWS V14.01,2013-10-10 21:21:00,
2013-10-10 16:26:00,75.1,53.8,30.03,ESE,117,7.2,9.0,47,0.00,,---,0.00,VWS V14.01,2013-10-10 21:26:00,
2013-10-10 16:31:00,74.9,53.0,30.03,SW,235,1.8,1.8,46,0.00,,---,0.00,VWS V14.01,2013-10-10 21:31:00,
2013-10-10 16:36:00,74.9,53.6,30.03,ESE,118,3.6,5.4,47,0.00,,---,0.00,VWS V14.01,2013-10-10 21:36:00,
2013-10-10 16:41:00,74.8,53.5,30.03,SSW,200,5.4,12.6,47,0.00,,---,0.00,VWS V14.01,2013-10-10 21:41:00,
2013-10-10 16:46:00,75.0,53.7,30.03,SSW,205,0.0,1.8,47,0.00,,---,0.00,VWS V14.01,2013-10-10 21:46:00,
2013-10-10 16:51:00,75.2,53.3,30.03,SSW,211,1.8,1.8,46,0.00,,---,0.00,VWS V14.01,2013-10-10 21:51:00,
2013-10-10 16:56:00,75.3,53.4,30.03,South,190,1.8,1.8,46,0.00,,---,0.00,VWS V14.01,2013-10-10 21:56:00,
2013-10-10 17:01:00,75.2,53.3,30.03,SSE,165,1.8,1.8,46,0.00,,---,0.00,VWS V14.01,2013-10-10 22:01:00,
2013-10-10 17:06:00,75.1,53.8,30.02,SE,139,1.8,1.8,47,0.00,,---,0.00,VWS V14.01,2013-10-10 22:06:00,
2013-10-10 17:11:00,75.0,53.1,30.03,SSE,165,0.0,0.0,46,0.00,,---,0.00,VWS V14.01,2013-10-10 22:11:00,
2013-10-10 17:16:00,75.0,53.7,30.03,ESE,110,1.8,1.8,47,0.00,,---,0.00,VWS V14.01,2013-10-10 22:16:00,
2013-10-10 17:21:00,74.4,53.7,30.03,East,99,5.4,5.4,48,0.00,,---,0.00,VWS V14.01,2013-10-10 22:21:00,
2013-10-10 17:26:00,74.0,53.3,30.02,ESE,122,0.0,1.8,48,0.00,,---,0.00,VWS V14.01,2013-10-10 22:26:00,
2013-10-10 17:31:00,73.6,53.4,30.02,SE,124,0.0,0.0,49,0.00,,---,0.00,VWS V14.01,2013-10-10 22:31:00,
2013-10-10 17:36:00,73.3,53.7,30.02,SSE,156,0.0,0.0,50,0.00,,---,0.00,VWS V14.01,2013-10-10 22:36:00,
2013-10-10 17:41:00,73.0,53.9,30.02,South,169,0.0,0.0,51,0.00,,---,0.00,VWS V14.01,2013-10-10 22:41:00,
2013-10-10 17:46:00,72.5,53.9,30.02,ESE,120,0.0,0.0,52,0.00,,---,0.00,VWS V14.01,2013-10-10 22:46:00,
2013-10-10 17:51:00,72.0,53.5,30.02,ESE,118,0.0,0.0,52,0.00,,---,0.00,VWS V14.01,2013-10-10 22:51:00,
2013-10-10 17:56:00,71.6,53.6,30.02,ESE,120,0.0,0.0,53,0.00,,---,0.00,VWS V14.01,2013-10-10 22:56:00,
2013-10-10 18:01:00,71.0,54.0,30.02,ESE,120,0.0,0.0,55,0.00,,---,0.00,VWS V14.01,2013-10-10 23:01:00,
2013-10-10 18:06:00,70.3,53.8,30.02,ESE,120,0.0,0.0,56,0.00,,---,0.00,VWS V14.01,2013-10-10 23:06:00,
2013-10-10 18:11:00,69.6,53.6,30.02,ESE,120,0.0,0.0,57,0.00,,---,0.00,VWS V14.01,2013-10-10 23:11:00,
2013-10-10 18:16:00,68.9,53.4,30.02,ESE,120,0.0,0.0,58,0.00,,---,0.00,VWS V14.01,2013-10-10 23:16:00,
2013-10-10 18:21:00,68.0,53.4,30.02,ESE,120,0.0,0.0,60,0.00,,---,0.00,VWS V14.01,2013-10-10 23:21:00,
2013-10-10 18:26:00,67.1,53.4,30.02,ESE,120,0.0,0.0,61,0.00,,---,0.00,VWS V14.01,2013-10-10 23:26:00,
2013-10-10 18:31:00,66.3,53.5,30.02,ESE,120,0.0,0.0,63,0.00,,---,0.00,VWS V14.01,2013-10-10 23:31:00,
2013-10-10 18:36:00,65.7,53.7,30.02,ESE,120,0.0,0.0,65,0.00,,---,0.00,VWS V14.01,2013-10-10 23:36:00,
2013-10-10 18:41:00,65.0,53.4,30.02,ESE,120,0.0,0.0,66,0.00,,---,0.00,VWS V14.01,2013-10-10 23:41:00,
2013-10-10 18:46:00,64.3,53.1,30.02,ESE,120,0.0,0.0,67,0.00,,---,0.00,VWS V14.01,2013-10-10 23:46:00,
2013-10-10 18:51:00,63.7,52.5,30.02,ESE,120,0.0,0.0,67,0.00,,---,0.00,VWS V14.01,2013-10-10 23:51:00,
2013-10-10 18:56:00,63.5,53.1,30.02,ESE,120,0.0,0.0,69,0.00,,---,0.00,VWS V14.01,2013-10-10 23:56:00,
2013-10-10 19:01:00,63.1,53.1,30.02,ESE,120,0.0,0.0,70,0.00,,---,0.00,VWS V14.01,2013-10-11 00:01:00,
2013-10-10 19:06:00,62.8,53.2,30.01,ESE,120,0.0,0.0,71,0.00,,---,0.00,VWS V14.01,2013-10-11 00:06:00,
2013-10-10 19:11:00,62.6,53.0,30.01,ESE,120,0.0,0.0,71,0.00,,---,0.00,VWS V14.01,2013-10-11 00:11:00,
2013-10-10 19:16:00,62.3,52.7,30.01,ESE,120,0.0,0.0,71,0.00,,---,0.00,VWS V14.01,2013-10-11 00:16:00,
2013-10-10 19:21:00,62.1,52.8,30.01,ESE,120,0.0,0.0,72,0.00,,---,0.00,VWS V14.01,2013-10-11 00:21:00,
2013-10-10 19:26:00,61.7,52.5,30.01,ESE,120,0.0,0.0,72,0.00,,---,0.00,VWS V14.01,2013-10-11 00:26:00,
2013-10-10 19:31:00,61.4,52.5,30.01,ESE,120,0.0,0.0,73,0.00,,---,0.00,VWS V14.01,2013-10-11 00:31:00,
2013-10-10 19:36:00,61.0,52.1,30.01,ESE,120,0.0,0.0,73,0.00,,---,0.00,VWS V14.01,2013-10-11 00:36:00,
2013-10-10 19:41:00,60.6,52.1,30.01,ESE,120,0.0,0.0,73,0.00,,---,0.00,VWS V14.01,2013-10-11 00:41:00,
2013-10-10 19:46:00,60.4,52.2,30.01,ESE,120,0.0,0.0,74,0.00,,---,0.00,VWS V14.01,2013-10-11 00:46:00,
2013-10-10 19:51:00,60.1,52.3,30.01,ESE,120,0.0,0.0,75,0.00,,---,0.00,VWS V14.01,2013-10-11 00:51:00,
2013-10-10 19:55:00,59.8,52.3,30.01,ESE,120,0.0,0.0,76,0.00,,---,0.00,VWS V14.01,2013-10-11 00:55:00,
2013-10-10 20:00:00,59.5,52.0,30.01,ESE,120,0.0,0.0,76,0.00,,---,0.00,VWS V14.01,2013-10-11 01:00:00,
2013-10-10 20:05:00,59.3,51.8,30.01,ESE,120,0.0,0.0,76,0.00,,---,0.00,VWS V14.01,2013-10-11 01:05:00,
2013-10-10 20:10:00,59.0,51.9,30.01,ESE,120,0.0,0.0,77,0.00,,---,0.00,VWS V14.01,2013-10-11 01:10:00,
2013-10-10 20:15:00,58.7,51.6,30.01,ESE,120,0.0,0.0,77,0.00,,---,0.00,VWS V14.01,2013-10-11 01:15:00,
2013-10-10 20:20:00,58.5,51.4,30.01,ESE,120,0.0,0.0,77,0.00,,---,0.00,VWS V14.01,2013-10-11 01:20:00,
2013-10-10 20:25:00,58.4,51.6,30.01,ESE,120,0.0,0.0,78,0.00,,---,0.00,VWS V14.01,2013-10-11 01:25:00,
2013-10-10 20:30:00,58.3,51.5,30.01,ESE,120,0.0,0.0,78,0.00,,---,0.00,VWS V14.01,2013-10-11 01:30:00,
2013-10-10 20:35:00,58.3,51.5,30.01,ESE,120,0.0,0.0,78,0.00,,---,0.00,VWS V14.01,2013-10-11 01:35:00,
2013-10-10 20:40:00,58.3,51.5,30.01,ESE,120,0.0,0.0,78,0.00,,---,0.00,VWS V14.01,2013-10-11 01:40:00,
2013-10-10 20:45:00,58.1,51.3,30.01,ESE,120,0.0,0.0,78,0.00,,---,0.00,VWS V14.01,2013-10-11 01:45:00,
2013-10-10 20:50:00,58.1,51.3,30.01,ESE,102,0.0,0.0,78,0.00,,---,0.00,VWS V14.01,2013-10-11 01:50:00,
2013-10-10 20:55:00,58.2,51.4,30.01,ESE,102,0.0,0.0,78,0.00,,---,0.00,VWS V14.01,2013-10-11 01:55:00,
2013-10-10 21:00:00,58.2,51.4,30.01,East,101,0.0,0.0,78,0.00,,---,0.00,VWS V14.01,2013-10-11 02:00:00,
2013-10-10 21:05:00,58.2,51.4,30.01,East,101,0.0,0.0,78,0.00,,---,0.00,VWS V14.01,2013-10-11 02:05:00,
2013-10-10 21:10:00,58.0,51.2,30.01,East,101,0.0,0.0,78,0.00,,---,0.00,VWS V14.01,2013-10-11 02:10:00,
2013-10-10 21:15:00,57.7,51.3,30.01,East,101,0.0,0.0,79,0.00,,---,0.00,VWS V14.01,2013-10-11 02:15:00,
2013-10-10 21:20:00,57.4,51.0,30.01,East,101,0.0,0.0,79,0.00,,---,0.00,VWS V14.01,2013-10-11 02:20:00,
2013-10-10 21:25:00,57.2,51.1,30.01,East,101,0.0,0.0,80,0.00,,---,0.00,VWS V14.01,2013-10-11 02:25:00,
2013-10-10 21:30:00,57.0,51.2,30.01,East,101,0.0,0.0,81,0.00,,---,0.00,VWS V14.01,2013-10-11 02:30:00,
2013-10-10 21:35:00,57.0,51.2,30.01,ESE,102,0.0,0.0,81,0.00,,---,0.00,VWS V14.01,2013-10-11 02:35:00,
2013-10-10 21:40:00,56.8,51.0,30.01,East,101,0.0,0.0,81,0.00,,---,0.00,VWS V14.01,2013-10-11 02:40:00,
2013-10-10 21:45:00,56.6,51.1,30.01,East,101,0.0,0.0,82,0.00,,---,0.00,VWS V14.01,2013-10-11 02:45:00,
2013-10-10 21:50:00,56.7,51.2,30.01,East,101,0.0,0.0,82,0.00,,---,0.00,VWS V14.01,2013-10-11 02:50:00,
2013-10-10 21:55:00,56.9,51.4,30.01,East,101,0.0,0.0,82,0.00,,---,0.00,VWS V14.01,2013-10-11 02:55:00,
2013-10-10 22:00:00,57.0,51.5,30.01,East,101,0.0,0.0,82,0.00,,---,0.00,VWS V14.01,2013-10-11 03:00:00,
2013-10-10 22:05:00,57.3,51.5,30.01,East,101,0.0,0.0,81,0.00,,---,0.00,VWS V14.01,2013-10-11 03:05:00,
2013-10-10 22:10:00,57.6,51.5,30.01,East,101,0.0,0.0,80,0.00,,---,0.00,VWS V14.01,2013-10-11 03:10:00,
2013-10-10 22:15:00,57.5,51.1,30.00,East,101,0.0,0.0,79,0.00,,---,0.00,VWS V14.01,2013-10-11 03:15:00,
2013-10-10 22:20:00,57.5,51.4,30.00,East,101,0.0,0.0,80,0.00,,---,0.00,VWS V14.01,2013-10-11 03:20:00,
2013-10-10 22:25:00,57.5,51.4,30.00,East,101,0.0,0.0,80,0.00,,---,0.00,VWS V14.01,2013-10-11 03:25:00,
2013-10-10 22:30:00,57.4,51.3,30.00,East,101,0.0,0.0,80,0.00,,---,0.00,VWS V14.01,2013-10-11 03:30:00,
2013-10-10 22:35:00,57.2,50.8,30.00,East,101,0.0,0.0,79,0.00,,---,0.00,VWS V14.01,2013-10-11 03:35:00,
2013-10-10 22:40:00,56.8,50.7,30.01,East,101,0.0,0.0,80,0.00,,---,0.00,VWS V14.01,2013-10-11 03:40:00,
2013-10-10 22:45:00,56.5,50.7,30.01,East,101,0.0,0.0,81,0.00,,---,0.00,VWS V14.01,2013-10-11 03:45:00,
2013-10-10 22:50:00,56.5,51.0,30.01,East,101,0.0,0.0,82,0.00,,---,0.00,VWS V14.01,2013-10-11 03:50:00,
2013-10-10 22:55:00,56.4,50.6,30.00,East,101,0.0,0.0,81,0.00,,---,0.00,VWS V14.01,2013-10-11 03:55:00,
2013-10-10 23:00:00,56.1,50.3,30.00,East,101,0.0,0.0,81,0.00,,---,0.00,VWS V14.01,2013-10-11 04:00:00,
2013-10-10 23:01:00,56.1,50.6,30.00,East,101,0.0,0.0,82,0.00,,---,0.00,VWS V14.01,2013-10-11 04:01:00,
2013-10-10 23:06:00,55.8,50.3,30.00,ESE,102,0.0,0.0,82,0.00,,---,0.00,VWS V14.01,2013-10-11 04:06:00,
2013-10-10 23:11:00,55.6,50.2,30.00,East,101,0.0,0.0,82,0.00,,---,0.00,VWS V14.01,2013-10-11 04:11:00,
2013-10-10 23:16:00,55.4,50.3,30.00,East,101,0.0,0.0,83,0.00,,---,0.00,VWS V14.01,2013-10-11 04:16:00,
2013-10-10 23:21:00,55.2,50.1,30.00,East,101,0.0,0.0,83,0.00,,---,0.00,VWS V14.01,2013-10-11 04:21:00,
2013-10-10 23:26:00,55.3,50.5,30.01,ESE,102,0.0,0.0,84,0.00,,---,0.00,VWS V14.01,2013-10-11 04:26:00,
2013-10-10 23:31:00,55.3,50.5,30.01,East,101,0.0,0.0,84,0.00,,---,0.00,VWS V14.01,2013-10-11 04:31:00,
2013-10-10 23:36:00,55.3,50.5,30.00,ESE,102,0.0,0.0,84,0.00,,---,0.00,VWS V14.01,2013-10-11 04:36:00,
2013-10-10 23:41:00,55.3,50.5,30.00,East,101,0.0,0.0,84,0.00,,---,0.00,VWS V14.01,2013-10-11 04:41:00,
2013-10-10 23:46:00,55.4,50.6,30.00,East,101,0.0,0.0,84,0.00,,---,0.00,VWS V14.01,2013-10-11 04:46:00,
2013-10-10 23:51:00,55.5,50.7,30.00,ESE,102,0.0,0.0,84,0.00,,---,0.00,VWS V14.01,2013-10-11 04:51:00,
2013-10-10 23:56:00,55.5,50.7,30.00,East,101,0.0,0.0,84,0.00,,---,0.00,VWS V14.01,2013-10-11 04:56:00,